#timestamp,LO_Frequency,Hit,StdDev 
1550649615.8,286047000.9,P
1550649635.6,286047000.2,N
1550649655.5,286047002.4,N
1550649675.3,286047000.9,N
1550649695.2,286046999.7,N
1550649715.9,286047002.5,N
1550649735.7,286047002.3,N
1550649755.6,286047000.8,N
1550649775.4,286047002.5,N
1550649795.2,286047000.5,N
1550649815.1,286046999.7,N
1550649816.0,286046999.7,N
1550649835.8,286046999.8,N
1550649855.7,286047002.7,N
1550649875.5,286047002.2,N
1550649895.3,286047004.3,Y
1550649915.2,286047002.8,P
1550649935.0,286047003.9,P
1550649935.9,286047003.9,P
1550649955.8,286047002.1,N
1550649975.6,286047003.2,Y
1550649995.4,286047000.1,P
1550650015.3,286047000.4,N
1550650035.1,286047001.8,N
1550650055.8,286047000.9,N
1550650075.7,286047002.8,N
1550650095.5,286047001.9,N
1550650115.4,286047001.8,N
1550650135.2,286047001.6,N
1550650155.0,286047005.6,Y
1550650155.9,286047005.6,P
1550650175.8,286047003.2,N
1550650195.6,286047004.8,N
1550650215.5,286047005.5,Y
1550650235.3,286047001.3,P
1550650255.1,286047003.4,N
1550650275.9,286047001.5,N
1550650295.7,286047003.5,Y
1550650315.6,286047002.2,P
1550650335.4,286047001.4,P
1550650355.2,286047004.3,P
1550650375.1,286047001.6,N
1550650376.0,286047001.6,N
1550650395.8,286046999.7,N
1550650415.6,286047001.5,N
1550650435.5,286047001.3,N
1550650455.3,286047003.6,Y
1550650475.2,286047001.3,P
1550650495.9,286047003.5,P
1550650515.7,286047003.2,P
1550650535.6,286047001.5,N
1550650555.4,286047002.1,N
1550650575.2,286047003.1,Y
1550650595.1,286047003.2,P
1550650596.0,286047003.2,P
1550650615.8,286047005.9,P
1550650635.7,286047002.9,N
1550650655.5,286047005.1,Y
1550650675.3,286046999.8,P
1550650695.2,286047003.4,N
1550650715.0,286047003.3,N
1550650715.9,286047003.3,N
1550650735.8,286047001.8,N
1550650755.6,286047002.2,N
1550650775.4,286047002.6,N
1550650795.3,286047003.7,Y
1550650815.1,286046996.5,P
1550650835.9,286046998.7,N
1550650855.7,286047002.7,N
1550650875.5,286047002.1,N
1550650895.4,286046999.7,N
1550650915.2,286046999.9,N
1550650935.0,286047000.1,N
1550650935.9,286047000.1,N
1550650955.8,286047002.0,N
1550650975.6,286046999.7,N
1550650995.5,286047002.1,N
1550651015.3,286047002.7,N
1550651035.1,286047002.0,N
1550651055.9,286047002.1,N
1550651075.7,286047001.4,N
1550651095.5,286047003.8,N
1550651115.4,286047003.4,N
1550651135.2,286047003.8,N
1550651155.1,286047004.3,N
1550651156.0,286047004.3,N
1550651175.8,286047001.6,N
1550651195.6,286047003.6,N
1550651215.5,286047002.1,N
1550651235.3,286047001.5,N
1550651255.2,286047003.5,N
1550651275.9,286047005.5,N
1550651295.7,286047005.2,N
1550651315.6,286047004.8,N
1550651335.4,286047003.2,N
1550651355.2,286047005.0,N
1550651375.1,286047004.7,N
1550651376.0,286047004.7,N
1550651395.8,286047006.4,Y
1550651415.7,286047005.2,P
1550651435.5,286047007.0,P
1550651455.3,286047005.2,N
1550651475.2,286047007.5,Y
1550651495.0,286047000.5,P
1550651495.9,286047000.5,N
1550651515.8,286047011.9,P
1550651535.6,286047000.3,N
1550651555.4,286047000.3,N
1550651575.3,286047000.7,N
1550651595.1,286047000.7,N
1550651615.8,286047000.8,N
1550651635.7,286047004.4,N
1550651655.5,286047004.2,N
1550651675.4,286047003.2,N
1550651695.2,286047001.3,N
1550651715.0,286047001.6,N
1550651715.9,286047001.6,N
1550651735.8,286047004.3,N
1550651755.6,286047001.8,N
1550651775.4,286047003.5,N
1550651795.3,286047002.0,N
1550651815.1,286047002.7,N
1550651835.9,286047000.0,N
1550651855.7,286047000.0,N
1550651875.5,286047002.8,N
1550651895.4,286047001.4,N
1550651915.2,286047002.7,N
1550651935.0,286047000.1,N
1550651935.9,286047000.1,N
1550651955.8,286047002.6,N
1550651975.6,286047003.1,N
1550651995.5,286047003.0,N
1550652015.3,286047003.1,N
1550652035.1,286047004.4,N
1550652055.9,286046999.7,N
1550652075.7,286047002.8,N
1550652095.5,286047000.6,N
1550652115.4,286047000.5,N
1550652135.2,286047000.6,N
1550652155.1,286046999.3,N
1550652156.0,286046999.3,N
1550652175.8,286047001.2,N
1550652195.6,286047000.0,N
1550652215.5,286047001.3,N
1550652235.3,286047000.4,N
1550652255.1,286047000.8,N
1550652275.9,286046999.0,N
1550652295.7,286047000.8,N
1550652315.6,286047002.7,N
1550652335.4,286047001.0,N
1550652355.2,286047000.0,N
1550652375.1,286047000.4,N
1550652376.0,286047000.4,N
1550652395.8,286047000.9,N
1550652415.7,286047000.5,N
1550652435.5,286046999.9,N
1550652455.3,286046998.8,N
1550652475.2,286046997.0,N
1550652495.0,286046999.2,N
1550652495.9,286046999.2,N
1550652515.7,286046996.9,N
1550652535.6,286046997.2,N
1550652555.4,286046998.6,N
1550652575.3,286046998.7,N
1550652595.1,286046998.8,N
1550652615.8,286046999.1,N
1550652635.7,286046995.1,Y
1550652655.5,286046997.0,P
1550652675.4,286046997.6,N
1550652695.2,286046995.0,P
1550652715.0,286046996.0,N
1550652715.9,286046996.0,N
1550652735.8,286046994.1,Y
1550652755.6,286046999.0,P
1550652775.5,286046998.4,N
1550652795.3,286046996.6,P
1550652815.1,286046999.2,N
1550652835.9,286046999.5,N
1550652855.7,286046996.6,Y
1550652875.5,286046999.3,P
1550652895.4,286046999.0,N
1550652915.2,286046997.2,P
1550652935.1,286046997.6,Y
1550652936.0,286046997.6,P
1550652955.8,286046998.9,N
1550652975.6,286046999.6,N
1550652995.5,286046999.6,N
1550653015.3,286046996.9,Y
1550653035.2,286046996.6,P
1550653055.9,286046997.5,N
1550653075.7,286046998.0,N
1550653095.6,286046996.1,Y
1550653115.4,286046999.4,P
1550653135.3,286046998.4,N
1550653155.1,286047000.8,N
1550653156.0,286047000.8,N
1550653175.8,286047000.7,N
1550653195.7,286046996.5,N
